Orbital Elements at Epoch 2459200.5 (2020-Dec-17.0) TDB
Reference: JPL 27 (heliocentric ecliptic J2000)
Element | Value | Uncertainty (1-sigma) | Units |
e | .101297700288759 | 4.6614e-08 | |
a | 2.601937317598206 | 1.8197e-08 | au |
q | 2.338367051030006 | 1.2957e-07 | au |
i | 5.909751921745207 | 4.8726e-06 | deg |
node | 158.0646744325299 | 3.843e-05 | deg |
peri | 343.9916499420738 | 4.4809e-05 | deg |
M | 348.5037120631297 | 2.2663e-05 | deg |
tp | 2459249.455197118707 (2021-Feb-03.95519712) | 9.6492e-05 | TDB |
period | 1533.00535438156 4.20 | 1.6082e-05 4.403e-08 | d yr |
n | .2348328392794362 | 2.4635e-09 | deg/d |
Q | 2.865507584166407 | 2.004e-08 | au |
|
| | Orbit Determination Parameters
Additional Information
|